When you browse on this site, cookies collect data to enhance your experience and personalize the content and advertising you see.
Visit our Privacy Policy to learn more. By continuing to use the site, you agree to this use of cookies and data.

Stündliche Wetter Bolshie Izori

Heute, 27 September, Sonntag

Zeit Temperatur Niederschläge Wind Luftdruck Luftfeuchtigkeit
00:00 +14°C° 0 mm 3 m/S 751 mmHg 75%
01:00 +14°C° 0 mm 3 m/S 751 mmHg 75%
02:00 +14°C° 0 mm 4 m/S 751 mmHg 74%
03:00 +13°C° 0 mm 4 m/S 751 mmHg 74%
04:00 +13°C° 0 mm 4 m/S 751 mmHg 74%
05:00 +13°C° 0 mm 4 m/S 751 mmHg 74%
06:00 +13°C° 0 mm 4 m/S 752 mmHg 71%
07:00 +14°C° 0 mm 4 m/S 752 mmHg 68%
08:00 +14°C° 0 mm 4 m/S 752 mmHg 63%
09:00 +17°C° 0 mm 4 m/S 752 mmHg 59%
10:00 +17°C° 0 mm 5 m/S 752 mmHg 54%
11:00 +20°C° 0 mm 5 m/S 752 mmHg 50%
12:00 +20°C° 0 mm 5 m/S 753 mmHg 48%
13:00 +21°C° 0 mm 5 m/S 753 mmHg 46%
14:00 +21°C° 0 mm 5 m/S 753 mmHg 45%
15:00 +20°C° 0 mm 5 m/S 752 mmHg 49%
16:00 +18°C° 0 mm 4 m/S 752 mmHg 53%
17:00 +17°C° 0 mm 4 m/S 752 mmHg 58%
18:00 +15°C° 0 mm 4 m/S 753 mmHg 60%
19:00 +14°C° 0 mm 4 m/S 753 mmHg 61%
20:00 +13°C° 0 mm 4 m/S 753 mmHg 63%
21:00 +13°C° 0 mm 4 m/S 754 mmHg 65%
22:00 +12°C° 0 mm 4 m/S 754 mmHg 66%
23:00 +12°C° 0 mm 3 m/S 754 mmHg 68%

Morgen, 28 September, Montag

Zeit Temperatur Niederschläge Wind Luftdruck Luftfeuchtigkeit
00:00 +12°C° 0.1 mm 3 m/S 753 mmHg 68%
01:00 +12°C° 0.1 mm 3 m/S 753 mmHg 69%
02:00 +12°C° 0.1 mm 3 m/S 753 mmHg 70%
03:00 +12°C° 0.3 mm 3 m/S 753 mmHg 74%
04:00 +11°C° 0.3 mm 3 m/S 753 mmHg 78%
05:00 +11°C° 0.3 mm 3 m/S 752 mmHg 82%
06:00 +11°C° 0.1 mm 4 m/S 752 mmHg 81%
07:00 +10°C° 0.1 mm 4 m/S 752 mmHg 81%
08:00 +10°C° 0.1 mm 4 m/S 752 mmHg 80%
09:00 +11°C° 0 mm 4 m/S 752 mmHg 78%
10:00 +12°C° 0 mm 4 m/S 752 mmHg 77%
11:00 +13°C° 0 mm 4 m/S 752 mmHg 76%
12:00 +13°C° 0 mm 4 m/S 752 mmHg 78%
13:00 +13°C° 0 mm 4 m/S 752 mmHg 80%
14:00 +13°C° 0 mm 4 m/S 752 mmHg 82%
15:00 +13°C° 0.1 mm 4 m/S 752 mmHg 83%
16:00 +13°C° 0.1 mm 3 m/S 753 mmHg 84%
17:00 +13°C° 0.1 mm 3 m/S 753 mmHg 86%
18:00 +13°C° 0.4 mm 3 m/S 753 mmHg 88%
19:00 +12°C° 0.4 mm 3 m/S 753 mmHg 91%
20:00 +12°C° 0.4 mm 3 m/S 753 mmHg 94%
21:00 +12°C° 0.3 mm 3 m/S 753 mmHg 94%
22:00 +11°C° 0.3 mm 3 m/S 753 mmHg 94%
23:00 +11°C° 0.3 mm 3 m/S 753 mmHg 94%

übermorgen, 29 September, Dienstag

Zeit Temperatur Niederschläge Wind Luftdruck Luftfeuchtigkeit
00:00 +11°C° 0.1 mm 3 m/S 753 mmHg 94%
01:00 +11°C° 0.1 mm 3 m/S 754 mmHg 94%
02:00 +11°C° 0.1 mm 3 m/S 754 mmHg 94%
03:00 +11°C° 0 mm 3 m/S 754 mmHg 94%
04:00 +11°C° 0 mm 3 m/S 753 mmHg 94%
05:00 +11°C° 0 mm 3 m/S 753 mmHg 93%
06:00 +11°C° 0 mm 3 m/S 754 mmHg 93%
07:00 +11°C° 0 mm 3 m/S 754 mmHg 92%
08:00 +11°C° 0 mm 3 m/S 754 mmHg 92%
09:00 +13°C° 0.1 mm 2 m/S 754 mmHg 91%
10:00 +13°C° 0.1 mm 2 m/S 754 mmHg 89%
11:00 +13°C° 0.1 mm 2 m/S 754 mmHg 88%
12:00 +14°C° 0 mm 2 m/S 754 mmHg 83%
13:00 +15°C° 0 mm 2 m/S 754 mmHg 77%
14:00 +18°C° 0 mm 1 m/S 754 mmHg 71%
15:00 +16°C° 0 mm 1 m/S 754 mmHg 75%
16:00 +15°C° 0 mm 1 m/S 754 mmHg 79%
17:00 +14°C° 0 mm 1 m/S 753 mmHg 83%
18:00 +13°C° 0 mm 1 m/S 753 mmHg 87%
19:00 +13°C° 0 mm 1 m/S 754 mmHg 90%
20:00 +12°C° 0 mm 1 m/S 754 mmHg 94%
21:00 +12°C° 0 mm 2 m/S 753 mmHg 94%
22:00 +10°C° 0 mm 2 m/S 753 mmHg 94%
23:00 +10°C° 0 mm 2 m/S 753 mmHg 95%

30 September, Mittwoch

Zeit Temperatur Niederschläge Wind Luftdruck Luftfeuchtigkeit
00:00 +11°C° 0 mm 1 m/S 753 mmHg 93%
01:00 +10°C° 0 mm 1 m/S 753 mmHg 92%
02:00 +10°C° 0 mm 1 m/S 753 mmHg 91%
03:00 +9°C° 0 mm 2 m/S 753 mmHg 88%
04:00 +9°C° 0 mm 2 m/S 753 mmHg 86%
05:00 +9°C° 0 mm 2 m/S 753 mmHg 84%
06:00 +10°C° 0 mm 2 m/S 753 mmHg 80%
07:00 +10°C° 0 mm 2 m/S 753 mmHg 76%
08:00 +12°C° 0 mm 2 m/S 753 mmHg 72%
09:00 +13°C° 0 mm 2 m/S 753 mmHg 67%
10:00 +15°C° 0 mm 2 m/S 753 mmHg 61%
11:00 +16°C° 0 mm 2 m/S 753 mmHg 56%
12:00 +16°C° 0 mm 2 m/S 753 mmHg 57%
13:00 +16°C° 0 mm 2 m/S 753 mmHg 57%
14:00 +16°C° 0 mm 2 m/S 752 mmHg 58%
15:00 +15°C° 0 mm 2 m/S 752 mmHg 61%
16:00 +15°C° 0 mm 2 m/S 753 mmHg 64%
17:00 +14°C° 0 mm 2 m/S 753 mmHg 67%
18:00 +12°C° 0 mm 3 m/S 753 mmHg 69%
19:00 +12°C° 0 mm 3 m/S 753 mmHg 72%
20:00 +11°C° 0 mm 3 m/S 753 mmHg 74%
21:00 +11°C° 0 mm 3 m/S 753 mmHg 74%
22:00 +10°C° 0 mm 3 m/S 753 mmHg 73%
23:00 +10°C° 0 mm 3 m/S 753 mmHg 73%

1 Oktober, Donnerstag

Zeit Temperatur Niederschläge Wind Luftdruck Luftfeuchtigkeit
00:00 +9°C° 0 mm 3 m/S 753 mmHg 74%
01:00 +9°C° 0 mm 3 m/S 753 mmHg 74%
02:00 +8°C° 0 mm 3 m/S 753 mmHg 74%
03:00 +8°C° 0 mm 3 m/S 753 mmHg 74%
04:00 +8°C° 0 mm 3 m/S 753 mmHg 75%
05:00 +7°C° 0 mm 3 m/S 753 mmHg 75%
06:00 +8°C° 0 mm 3 m/S 753 mmHg 73%
07:00 +9°C° 0 mm 3 m/S 753 mmHg 71%
08:00 +10°C° 0 mm 3 m/S 753 mmHg 68%
09:00 +12°C° 0 mm 3 m/S 753 mmHg 64%
10:00 +13°C° 0 mm 3 m/S 753 mmHg 60%
11:00 +16°C° 0 mm 3 m/S 753 mmHg 55%
12:00 +17°C° 0 mm 4 m/S 753 mmHg 53%
13:00 +18°C° 0 mm 4 m/S 753 mmHg 51%
14:00 +18°C° 0 mm 4 m/S 752 mmHg 49%
15:00 +17°C° 0 mm 4 m/S 752 mmHg 54%
16:00 +16°C° 0 mm 3 m/S 752 mmHg 59%
17:00 +14°C° 0 mm 3 m/S 752 mmHg 65%
18:00 +13°C° 0 mm 3 m/S 753 mmHg 66%
19:00 +12°C° 0 mm 3 m/S 753 mmHg 68%
20:00 +11°C° 0 mm 3 m/S 753 mmHg 69%
21:00 +11°C° 0 mm 3 m/S 753 mmHg 69%
22:00 +11°C° 0 mm 3 m/S 753 mmHg 69%
23:00 +11°C° 0 mm 3 m/S 753 mmHg 69%

2 Oktober, Freitag

Zeit Temperatur Niederschläge Wind Luftdruck Luftfeuchtigkeit
00:00 +11°C° 0 mm 3 m/S 753 mmHg 68%
01:00 +11°C° 0 mm 4 m/S 753 mmHg 67%
02:00 +11°C° 0 mm 4 m/S 753 mmHg 66%
03:00 +10°C° 0 mm 4 m/S 753 mmHg 68%
04:00 +10°C° 0 mm 4 m/S 753 mmHg 69%
05:00 +10°C° 0 mm 3 m/S 753 mmHg 70%
06:00 +10°C° 0 mm 4 m/S 753 mmHg 69%
07:00 +11°C° 0 mm 4 m/S 753 mmHg 67%
08:00 +11°C° 0 mm 4 m/S 753 mmHg 66%
09:00 +12°C° 0 mm 4 m/S 753 mmHg 62%
10:00 +14°C° 0 mm 4 m/S 754 mmHg 59%
11:00 +15°C° 0 mm 4 m/S 754 mmHg 56%
12:00 +15°C° 0 mm 4 m/S 754 mmHg 55%
13:00 +17°C° 0 mm 4 m/S 754 mmHg 54%
14:00 +18°C° 0 mm 4 m/S 754 mmHg 52%
15:00 +16°C° 0 mm 3 m/S 754 mmHg 58%
16:00 +14°C° 0 mm 3 m/S 754 mmHg 63%
17:00 +13°C° 0 mm 3 m/S 754 mmHg 68%
18:00 +13°C° 0 mm 3 m/S 755 mmHg 70%
19:00 +14°C° 0 mm 2 m/S 755 mmHg 71%
20:00 +14°C° 0 mm 2 m/S 755 mmHg 73%
21:00 +12°C° 0 mm 3 m/S 755 mmHg 75%
22:00 +12°C° 0 mm 3 m/S 755 mmHg 77%
23:00 +12°C° 0 mm 3 m/S 755 mmHg 79%
Mehr zeigen